Regional Weather Roundup
Issued by NWS

Home | Current Version | Previous Version | Text Only | Print | Product List | Glossary On
Versions: 1 2 3 4 5 6 7 8 9 10 11 12 13 14 15 16 17 18 19 20 21 22 23 24 25 26 27 28 29 30 31 32 33 34 35 36 37 38 39 40 41 42 43 44 45 46 47 48 49 50
000
ASUS42 KTBW 202110
RWRFL
FLORIDA REGIONAL WEATHER ROUNDUP
NATIONAL WEATHER SERVICE TAMPA BAY RUSKIN FL
500 PM EDT MON OCT 20 2014

NOTE: "FAIR" INDICATES FEW OR NO CLOUDS BELOW 12,000 FEET WITH NO
SIGNIFICANT WEATHER AND/OR OBSTRUCTIONS TO VISIBILITY.


FLZ001>010-012>015-112-114-115-202200-
PANHANDLE FLORIDA

CITY           SKY/WX    TMP DP  RH WIND       PRES   REMARKS
PENSACOLA      MOSUNNY   77  57  50 VRB7      29.98F
PENSACOLA NAS  MOSUNNY   76  60  57 SW8       29.97F
MILTON NAS     PTSUNNY   78  50  37 CALM      29.98F
CRESTVIEW      MOSUNNY   79  55  43 CALM      29.99F
DUKE FIELD     MOSUNNY   80  54  40 VRB7      29.97F
VALPARAISO     PTSUNNY   76  62  61 S8        29.97F
MARY ESTHER    MOSUNNY   76  59  54 S8        29.97F
PANAMA CITY    FAIR      80  57  45 SE5       29.96F
TYNDALL AFB    SUNNY     78  66  67 W10       29.97F
APALACHICOLA   PTSUNNY   80  69  69 SE6       29.96F

STATION/POSITION SKY/WX   TEMP    WIND        PRES    WAVE   SWELL
                          AIR SEA DIR/SP/G            HT/PER HT/PER
                          (F)     (DEG/KT/KT) (MB)    (FT/S) (FT/S)
30.1N   87.6W              75 79   CALM  /  2 1015.2F   1/ 4
29.2N   88.2W              76 81   30/  4/  8 1015.6F
28.8N   86.0W              79 82   CALM  /  2 1014.7F   2/ 5   2/ 5
PANAMA CITY BEAC           74 78  260/  5/  6 1014.9F
CAPE SAN BLAS    NOT AVBL
TOWER C                    77     100/  5/  6 1014.4F
28.5N   84.5W              79 82  160/  6/  8 1014.5F   2/ 4   2/ 4

$$
FLZ011-016>038-118-127-128-134-139-239-202200-
NORTH FLORIDA

CITY           SKY/WX    TMP DP  RH WIND       PRES   REMARKS
MARIANNA       PTSUNNY   78  62  57 S3        29.96F
TALLAHASSEE    PTSUNNY   82  60  47 S7        29.96F
PERRY          SUNNY     81  61  50 SW8       29.98S
CROSS CITY       N/A     84  60  44 SW7       29.96F
LAKE CITY      FAIR      81  61  50 SE3       29.97F
GAINESVILLE    MOSUNNY   81  60  48 E5        29.96F
MAYPORT NAS    PTSUNNY   80  65  59 SE12      29.98F
JACKSONVILLE   PTSUNNY   78  65  63 SE9       29.97F
JAX NAS        PTSUNNY   82  65  56 E14       29.98F
JAX CRAIG      MOSUNNY   79  64  60 E10       29.98F
JAX CECIL      MOSUNNY   81  64  57 SE7       29.97F
FERNANDINA BEA FAIR      81  64  57 E7        29.98S
ST AUGUSTINE   PTSUNNY   79  66  64 SE13      29.99S

STATION/POSITION SKY/WX   TEMP    WIND        PRES    WAVE   SWELL
                          AIR SEA DIR/SP/G            HT/PER HT/PER
                          (F)     (DEG/KT/KT) (MB)    (FT/S) (FT/S)
SHELL POINT                77     150/  3/  5   N/A
KEATON BEACH               75     240/  5/  5 1015.2F
CEDAR KEY                  78     250/  4/  6 1015.5F
FERNANDINA                 77 75  140/  5/  8 1014.8F
30.7N   81.3W                 78                N/A     3/11   2/11
MAYPORT                    79 77  120/  7/ 11   N/A
31.4N   80.9W              76 76  150/  8/ 10 1015.7F   2/10   2/10
ST AUGUSTINE               77     130/ 10/ 11 1015.8F

$$
FLZ040-043>046-052-053-057-058-063-144-202200-
INTERIOR CENTRAL FLORIDA

CITY           SKY/WX    TMP DP  RH WIND       PRES   REMARKS
OCALA          MOSUNNY   82  59  44 SE3       29.96
THE VILLAGES     N/A     82  61  47 E9G18     29.86F
LEESBURG       PTSUNNY   83  61  47 S5        29.97F
SANFORD        MOSUNNY   83  67  58 E9        29.96S
ORLANDO EXEC   MOSUNNY   84  62  47 VRB5      29.95F
ORLANDO INTL   PTSUNNY   84  61  45 S8        29.95F
KISSIMMEE      MOSUNNY   84  59  42 E6        29.96F
WINTER HAVEN   MOSUNNY   82  61  48 E6        29.96F
LAKELAND       PTSUNNY   82  63  51 E3        29.95F
BARTOW         MOSUNNY   81  61  50 E5        29.96F
OKEECHOBEE     PTSUNNY   86  64  48 MISG      29.95F

$$
FLZ041-047-054-059-064-141-147-202200-
EAST CENTRAL FLORIDA

CITY           SKY/WX    TMP DP  RH WIND       PRES   REMARKS
ORMOND BEACH   MOSUNNY   79  66  65 E12       29.97F
DAYTONA BEACH  PTSUNNY   78  67  68 E9        29.97F
DELAND         MOCLDY    79  68  69 E10       29.98S
NEW SMYRNA BEA MOSUNNY   81  68  65 E13G20    29.98F
JFK SPACE CTR  SUNNY     82  68  62 NE7       29.96F
TITUSVILLE     MOSUNNY   81  68  65 NE12      29.96F
CAPE CANAVERAL SUNNY     80  67  64 E5        29.96S
PATRICK AFB    SUNNY     81  66  60 E8        29.96F
MELBOURNE      MOSUNNY   82  64  54 E9        29.96S
VERO BEACH     SUNNY     81  65  58 E9        29.96F
FT PIERCE      MOSUNNY   81  66  60 E9        29.95F
STUART         MOSUNNY   82  66  57 E14       29.97S

STATION/POSITION SKY/WX   TEMP    WIND        PRES    WAVE   SWELL
                          AIR SEA DIR/SP/G            HT/PER HT/PER
                          (F)     (DEG/KT/KT) (MB)    (FT/S) (FT/S)
28.5N   80.2W              80 84   CALM  /  2 1015.3F
28.9N   78.5W              79 80  110/ 10/ 12 1015.0F   4/ 4   3/10
TRIDENT PIER               81 81   90/  5/  7 1014.2F
28.4N   80.5W                 83                N/A     2/ 9
27.6N   80.2W                 82                N/A     2/11   2/11

$$
FLZ050-056-061-142-242-148-248-149-249-151-251-155-255-
160-260-202200-
WEST CENTRAL FLORIDA

CITY           SKY/WX    TMP DP  RH WIND       PRES   REMARKS
INVERNESS      FAIR      81  61  50 CALM      29.96F
BROOKSVILLE    PTSUNNY   83  59  44 S7        29.96F
ZEPHYRHILLS    FAIR      82  55  39 CALM      29.96F
CLEARWATER     PTSUNNY   84  62  47 NE5       29.95F
TAMPA INTL     PTSUNNY   82  62  50 W6        29.95F
TAMPA EXEC     MOSUNNY   84  63  48 E5        29.95F
PLANT CITY     MOSUNNY   84  59  42 SE5       29.96F
MACDILL AFB    PTSUNNY   85  65  50 NW3       29.95F
ST PETERSBURG  PTSUNNY   85  61  44 N3        29.93F
SARASOTA       MOSUNNY   82  66  58 W9        29.93S
VENICE           N/A     82  66  57 MISG      29.95S

STATION/POSITION SKY/WX   TEMP    WIND        PRES    WAVE   SWELL
                          AIR SEA DIR/SP/G            HT/PER HT/PER
                          (F)     (DEG/KT/KT) (MB)    (FT/S) (FT/S)
CEDAR KEY                  78     250/  4/  6 1015.5F
28.5N   84.5W              79 82  160/  6/  8 1014.5F   2/ 4   2/ 4
27.3N   84.3W                 81                N/A     3/ 5
CLEARWATER BEACH NOT AVBL
MIDDLE TAMPA BAY           81      20/  7/  8 1014.2S
VENICE                     82 81  220/  6/  6 1013.3F

$$
FLZ066-069-070-075>078-162-262-165-265-202200-
SOUTHWEST FLORIDA AND KEYS

CITY           SKY/WX    TMP DP  RH WIND       PRES   REMARKS
PUNTA GORDA    SUNNY     87  65  47 NW6       29.95F
FT MYERS       CLOUDY    86  64  47 S3        29.92F
SOUTHWEST INTL CLOUDY    85  64  49 SE5       29.93F
NAPLES         CLOUDY    85  67  54 SE7       29.93S
MARATHON       LGT RAIN  77  75  93 E8        29.92F
KEY WEST NAS   CLOUDY    80  72  76 SE15G23   29.92S THUNDER
KEY WEST INTL  CLOUDY    82  75  79 E5        29.92F

STATION/POSITION SKY/WX   TEMP    WIND        PRES    WAVE   SWELL
                          AIR SEA DIR/SP/G            HT/PER HT/PER
                          (F)     (DEG/KT/KT) (MB)    (FT/S) (FT/S)
VENICE                     82 81  220/  6/  6 1013.3F
NAPLES                     83 85   30/  3/  7 1014.0F
26.0N   85.6W              81 83   90/  4/  6 1013.5F   2/ 6   2/ 6
DRY TORTUGAS               82     190/  7/  7 1013.1R
NW FL BAY                  80     140/  8/ 10 1014.1F
SAND KEY                   81     150/  9/ 11 1012.8F
SOMBRERO KEY               77     100/  6/  7 1014.4R
LONG KEY                   80 82  150/  8/  9 1014.4F
MOLASSES REEF              81 84  120/ 12/ 13 1013.5F

$$
FLZ067-068-071>074-168-172>174-202200-
SOUTHEAST FLORIDA

CITY           SKY/WX    TMP DP  RH WIND       PRES   REMARKS
W PALM BEACH   PTSUNNY   82  65  56 SE12      29.94F
FT LAUDER-EXEC PTSUNNY   81  67  62 E12       29.94F
FT LAUDERDALE  PTSUNNY   83  68  60 E9        29.94F
POMPANO BEACH  CLOUDY    83  66  56 SE9       29.95F
PEMBROKE PINES CLOUDY    82  68  62 E9        29.95F
OPA LOCKA      CLOUDY    81  68  64 SE6       29.94F
MIAMI          LGT RAIN  78  72  81 S9        29.95S
WEST KENDALL   HVY RAIN  75  72  90 SE10      29.96S FOG
HOMESTEAD      MOSUNNY   74  71  90 N13       29.94F

STATION/POSITION SKY/WX   TEMP    WIND        PRES    WAVE   SWELL
                          AIR SEA DIR/SP/G            HT/PER HT/PER
                          (F)     (DEG/KT/KT) (MB)    (FT/S) (FT/S)
PORT EVERGLADES            82     100/  4/  8 1013.9
VIRGINIA KEY               81 82  110/  8/ 10 1014.4F
LAKE WORTH                 81 83  110/  7/  9 1014.1F
FOWEY ROCKS                79 83  120/ 12/ 16 1014.2F
SETTLEMENT POINT           80      70/  9/ 11 1015.3F

$$



USA.gov is the U.S. government's official web portal to all federal, state and local government web resources and services.